Preview of NWS' New Version of Forecast
This preview is not operational and should not be used for support decisions.
Latest weather observations around

Norwood, Norwood Memorial Airport (KOWD)

Using English Units (Switch to International System of Units)
Date/ Time (EDT) Wind (mph) Vis. (mi) Weather Sky Cond. Temp (°F) Rel. Humidity Wind Chill (°F) Heat Index (°F) Pressure Precip. (in)
Air Dwpt 6 hour Altimeter (inHg) Sea level (inHg) 1 hr 3 hr 6 hr
Max Min
May 26 04:53 S 5 10 Cloudy OVC020 59 53     81%     29.91 29.91   0  
May 26 04:06 S 7 10 Cloudy BKN024 OVC110 57 52     83%     29.91        
May 26 03:53 S 8 10 Mostly Cloudy FEW024 BKN110 57 51     81%     29.91 29.91      
May 26 02:53 S 8 10 Cloudy OVC038 56 51     84%     29.94 29.94 0    
May 26 02:04 S 6 10 Light Rain OVC038 54 49     83%     29.98   0    
May 26 01:53 SSE 6 4 Heavy Rain OVC038 54 49     83%     29.99 29.98 0   0
May 26 01:51 SSE 6 5 Heavy Rain OVC038 54 48     82%     29.99   0    
May 26 01:35 S 6 4 Thunderstorms and Rain BKN040 OVC050 55 48     77%     30   0    
May 26 01:23 SSW 8 7 Light Rain SCT044 BKN050 OVC075 56 47     72%     30.01   0    
May 26 01:15 S 8 2 Rain SCT042 BKN050 OVC090 55 47     74%     30   0    
May 26 00:58 SW 5 3 Light Rain BKN048 BKN070 OVC090 53 48     83%     29.99   0    
May 26 00:53 S 7 1.75 Thunderstorms and Heavy Rain BKN048 OVC095 53 48     83%     29.99 29.98 0    
May 26 00:49 S 11 2 Thunderstorms and Heavy Rain BKN048 BKN065 OVC100 54 46     77%     29.98   0    
May 26 00:35 S 11 4 Rain BKN055 BKN070 OVC100 55 45     69%     30.03   0    
May 25 23:53 SSW 11 10 Cloudy OVC055 63 36     37%     30.05 30.05      
May 25 22:53 S 9 10 Clear CLR 62 37     39%     30.05 30.05      
May 25 21:53 S 13 10 Mostly Clear FEW085 FEW120 63 39     41%     30.06 30.06      
May 25 20:53 S 14 10 Clear CLR 66 43     43%     30.06 30.06      
May 25 19:53 S 8 10 Clear CLR 68 42     39%     30.07 30.06      
May 25 18:53 S 10 10 Clear CLR 70 44     39%     30.08 30.07      
May 25 17:53 S 9 10 Clear CLR 73 44     35%   72 30.06 30.06      
May 25 16:53 S 9 10 Clear CLR 76 44     32%   75 30.09 30.08      
May 25 15:53 WSW 3 10 Clear CLR 78 43     29%   77 30.11 30.11      
May 25 14:53   10 Clear CLR 77 44     31%   76 30.13 30.13      
May 25 13:53 WSW 3 10 Clear CLR 76 44     32%   75 30.15 30.14      
May 25 12:53 7 10 Clear CLR 75 46     36%   74 30.17 30.17      
May 25 11:53 SSW 6 10 Mostly Clear FEW060 72 45     38%   71 30.19 30.19      
May 25 10:53 SW 7 10 Clear CLR 71 46     41%   70 30.2 30.2      
May 25 09:53 Calm 10 Clear CLR 69 47     45%     30.19 30.19      
May 25 08:53 WNW 6 10 Clear CLR 67 47     49%     30.2 30.19      
May 25 07:53 3 10 Clear CLR 62 51     67%     30.2 30.19      
May 25 06:53 Calm 10 Clear CLR 53 49     86%     30.19 30.19      
May 25 05:53 Calm 7 Clear CLR 44 41     89%     30.18 30.18      
May 25 04:53 Calm 8 Clear CLR 44 40     85%     30.16 30.16      
May 25 04:36 Calm 3 Fog/Mist CLR 44 40     85%     30.16        
May 25 04:25 Calm 1.75 Fog/Mist CLR 44 40     85%     30.16        
May 25 04:21 S 3 8 Clear CLR 45 41     86% 44   30.16        
May 25 04:14 Calm 2.5 Fog/Mist CLR 43 39     86%     30.16        
May 25 04:09 Calm 0.75 Fog/Mist CLR 43 39     86%     30.16        
May 25 04:01 Calm 1.5 Fog/Mist CLR 44 40     85%     30.16        
May 25 03:53 Calm 10 Clear CLR 44 40     85%     30.15 30.15      
May 25 03:21 Calm 3 Fog/Mist SCT002 45 41     86%     30.14        
May 25 03:12 Calm 1 Fog/Mist VV002 45 41     86%     30.14        
May 25 02:53 Calm 4 Fog/Mist FEW002 45 41     86%     30.14 30.14      
May 25 02:48 Calm 3 Fog/Mist FEW002 45 41     87%     30.14        
May 25 02:42 Calm 1.25 Fog/Mist SCT002 45 41     86%     30.14        
May 25 02:12 Calm 0.75 Fog/Mist VV002 45 41     86%     30.13        
May 25 02:10 Calm 2 Fog/Mist BKN002 45 41     86%     30.13        
May 25 02:03 Calm 9 Partly Cloudy SCT002 46 42     86%     30.13        
May 25 01:53 Calm 10 Clear CLR 45 41     86%     30.13 30.13      
May 25 01:48 Calm 10 Clear CLR 46 43     87%     30.13        
May 25 01:41 Calm 2.5 Haze CLR 47 42     83%     30.13        
May 25 01:37 Calm 0.75 Fog/Mist CLR 46 42     86%     30.13        
May 25 01:29 Calm 1.75 Fog/Mist CLR 45 41     86%     30.13        
May 25 00:53 Calm 10 Clear CLR 48 43     83%     30.14 30.14      
May 24 23:53 Calm 10 Clear CLR 51 44     77%     30.14 30.13      
May 24 22:53 NE 3 10 Mostly Cloudy BKN060 54 46     74%     30.12 30.11      
May 24 21:53 ENE 7 10 Cloudy OVC060 57 46     67%     30.11 30.11      
May 24 20:53 ENE 8 10 Clear   58 46     65%     30.08 30.08      
May 24 19:53 NE 7 10 Cloudy BKN048 OVC060 59 45     60%     30.05 30.05      
May 24 18:53 ENE 10 10 Cloudy OVC047 61 46     58%     30.01 30.01      
May 24 17:53 N 11 10 Cloudy OVC060 66 47     50%     29.97 29.96      
May 24 16:53 ENE 5 10 Cloudy OVC050 64 48     56%     29.93 29.92      
May 24 15:53 N 15 10 Cloudy OVC060 70 46     42%     29.88 29.88      
May 24 14:53 NNW 14 10 Cloudy FEW050 OVC060 72 47     41%   71 29.83 29.83      
May 24 13:53 NW 15 10 Cloudy OVC055 70        %     29.79 29.79     0
May 24 12:53 NW 21 10 Mostly Cloudy and Windy BKN050 73 49     43%   72 29.76 29.75      
May 24 11:53 NNW 16 10 Mostly Clear FEW047 73 48     41%   72 29.72 29.72      
May 24 10:53 NW 23 10 Mostly Cloudy and Windy SCT041 BKN050 70 51     51%     29.71 29.7 0 0  
May 24 09:53   10 Mostly Cloudy BKN041 71 51     49%   70 29.69 29.68      
May 24 08:53 W 22 10 Mostly Clear and Windy FEW037 69 52     54%     29.67 29.67      
May 24 07:53 W 16 10 Clear CLR 66 52     61%     29.67 29.67      
May 24 06:53 W 14 10 Clear CLR 64 54     70%     29.65 29.65      
May 24 05:53 W 10 10 Clear CLR 62 55     78%     29.65 29.65      
May 24 04:53 WSW 9 10 Clear CLR 63 56     78%     29.64 29.64      
May 24 03:53 WSW 9 10 Clear CLR 63 58     84%     29.65 29.65      
May 24 02:53 WSW 7 10 Clear CLR 62 58     86%     29.67 29.67      
May 24 01:53 WSW 7 10 Mostly Cloudy BKN110 63 59     87%     29.7 29.7 0   0
May 24 00:53 SSW 9 4 Rain and Fog/Mist FEW075 OVC095 63 59     87%     29.73 29.72 0    
May 24 00:46 S 10 4 Rain and Fog/Mist FEW027 SCT070 OVC090 63 59     87%     29.73   0    
May 24 00:37 SSW 9 5 Thunderstorms and Rain and Fog/Mist FEW013 BKN065 OVC095 63 59     87%     29.75   0    
May 24 00:30 SW 8 2 Thunderstorms and Rain and Fog/Mist SCT011 BKN027 OVC100 63 59     87%     29.76   0    
May 24 00:18 W 8 1.75 Thunderstorms and Heavy Rain BKN010 BKN024 OVC030 63 58     84%     29.78   0    
May 24 00:12 W 8 3 Thunderstorms and Heavy Rain OVC010 63 58     84%     29.78   0    
May 23 23:53 SW 6 10 Cloudy OVC010 63 58     84%     29.74 29.74      
May 23 23:39 SSW 7 10 Cloudy OVC010 62 57     84%     29.74        
May 23 22:53 S 7 10 Cloudy OVC009 61 56     83%     29.76 29.76   0  
May 23 22:50 S 9 10 Cloudy OVC009 61 55     82%     29.76        
May 23 21:53 S 9 10 Cloudy BKN014 BKN080 OVC100 60 56     86%     29.79 29.79 0    
May 23 21:00 S 9 10 Light Rain BKN014 BKN080 OVC100 61 56     83%     29.84   0    
May 23 20:53 S 7 10 Light Rain BKN017 BKN085 OVC100 61 55     81%     29.85 29.85 0    
May 23 19:53 S 10 10 Cloudy OVC017 61 54     78%     29.87 29.87     0
May 23 19:30 S 13 10 Cloudy BKN018 OVC100 61 54     78%     29.88        
May 23 18:53 S 15 10 Partly Cloudy SCT110 62 54     75%     29.89 29.89      
May 23 17:53 S 9 10 Mostly Cloudy BKN100 61 55     81%     29.93 29.93 0    
May 23 16:53 SSW 11 10 Cloudy BKN046 BKN095 OVC120 66 50     56%     30.01 30.01      
May 23 15:53 S 16 10 Cloudy OVC042 67 50     55%     30.01 30.01      
May 23 14:53 SSW 17 10 Cloudy OVC043 69 45     42%     30.03 30.03      
May 23 13:53 SW 14 10 Cloudy OVC048 70 46     42%     30.05 30.04      
May 23 12:53 S 16 10 Cloudy FEW032 BKN041 OVC050 67 50     55%     30.1 30.1      
May 23 11:53 SSW 13 10 Cloudy OVC047 66 50     56%     30.13 30.13      
May 23 10:53 S 10 10 Cloudy SCT028 BKN034 OVC045 63 49     60%     30.16 30.15      
May 23 09:53 SSW 13 10 Cloudy OVC055 63 48     58%     30.18 30.18      
May 23 08:53 S 14 10 Cloudy OVC070 62 46     56%     30.21 30.21      
May 23 07:53 SSW 13 10 Cloudy OVC075 59 44     58%     30.21 30.21     0
May 23 06:53 S 7 10 Cloudy OVC085 57 42     57%     30.22 30.22      
May 23 05:53 S 7 10 Cloudy OVC100 55 43     64%     30.24 30.24      
May 15 06:53 S 6 3 Fog/Mist OVC003 59 57     93%     29.85 29.85      
May 15 04:53 S 5 9 Clear   57 54     89%     29.86 29.85      
May 14 23:53 S 5 10 Clear CLR 57 53     87%     29.9 29.9      
May 14 13:53 SSW 9 10 Partly Cloudy SCT035 70 53     55%     29.93 29.93      
May 14 06:19 SSE 5 10 Cloudy BKN007 OVC030 52 49     89%     30.02        
May 13 23:53 SSE 5 10 Clear CLR 50 47     89% 48   30.08 30.07      
May 13 13:53 NNE 6 10 Mostly Cloudy BKN021 BKN026 60 49     67%     30.18 30.18      
May 13 00:53 NNE 5 6 Fog/Mist OVC006 52 49     89%     30.11 30.11      
May 12 14:15 N 3 10 Cloudy BKN009 OVC013 53 50     89%     30.14        
May 11 20:53 SSE 3 10 Clear CLR 54 32     43%     30.07 30.07      
May 11 12:53   10 Clear CLR 68 35     30%     29.96 29.96      
Jun 12 05:53 Calm 10 Clear CLR 69 65     87%     29.96 29.96      
Jun 10 22:53 SSW 7 10 Clear   73 56     55%   73 29.99 29.99      
Jun 10 15:53 S 13 10 Clear CLR 83 55     38%   82 29.91 29.91      
Jun 08 08:53 Calm 10 Clear CLR 66 55     68%     30.04 30.04      
Jun 07 22:53 Calm 10 Clear CLR 52 50     93%     30.02 30.02      
Jun 07 11:53 NE 8 10 Cloudy OVC075 64 50     60%     29.96 29.96      
Jun 06 13:35 NNE 14 6 Light Rain and Fog/Mist SCT009 SCT018 OVC039 49 47     93% 44   29.83   0    
Jun 06 11:53 NE 11 1.25 Light Rain and Fog/Mist BKN007 OVC014 50 48     93% 46   29.84 29.83 0    
Notice The following observation data may not be complete
Jun 06 05:05   1.75 Fog/Mist OVC006          %              
Jun 05 21:53 ENE 9 2.5 Light Rain and Fog/Mist OVC006 54 53     97%     29.84 29.83 0    
Jun 05 18:53 ENE 8 1.75 Fog/Mist OVC006 55 53     93%     29.83 29.82